When you browse on this site, cookies collect data to enhance your experience and personalize the content and advertising you see.
Visit our Privacy Policy to learn more. By continuing to use the site, you agree to this use of cookies and data.
EN

Hourly Weather Vratsa

Today, 2 July, Thursday

Time Temperature Precipitation Wind Pressure Humidity
00:00 +20°C° 0 mm 1 mps 708 mmHg 63%
01:00 +20°C° 0 mm 1 mps 708 mmHg 64%
02:00 +20°C° 0 mm 1 mps 708 mmHg 64%
03:00 +20°C° 0 mm 1 mps 707 mmHg 69%
04:00 +19°C° 0 mm 1 mps 707 mmHg 74%
05:00 +19°C° 0 mm 1 mps 707 mmHg 79%
06:00 +21°C° 0 mm 1 mps 707 mmHg 76%
07:00 +23°C° 0 mm 1 mps 707 mmHg 72%
08:00 +24°C° 0 mm 1 mps 708 mmHg 69%
09:00 +26°C° 0 mm 1 mps 708 mmHg 64%
10:00 +27°C° 0 mm 1 mps 708 mmHg 59%
11:00 +29°C° 0 mm 1 mps 708 mmHg 55%
12:00 +29°C° 0.2 mm 1 mps 708 mmHg 53%
13:00 +30°C° 0.2 mm 2 mps 708 mmHg 51%
14:00 +31°C° 0.2 mm 2 mps 708 mmHg 49%
15:00 +30°C° 0.6 mm 2 mps 707 mmHg 51%
16:00 +30°C° 0.6 mm 2 mps 707 mmHg 53%
17:00 +30°C° 0.6 mm 2 mps 706 mmHg 55%
18:00 +28°C° 0.1 mm 1 mps 706 mmHg 61%
19:00 +26°C° 0.1 mm 1 mps 706 mmHg 68%
20:00 +24°C° 0.1 mm 1 mps 706 mmHg 74%
21:00 +23°C° 0 mm 1 mps 706 mmHg 76%
22:00 +23°C° 0 mm 1 mps 706 mmHg 78%
23:00 +21°C° 0 mm 2 mps 706 mmHg 79%

Tomorrow, 3 July, Friday

Time Temperature Precipitation Wind Pressure Humidity
00:00 +20°C° 0.1 mm 2 mps 706 mmHg 80%
01:00 +21°C° 0.1 mm 1 mps 706 mmHg 82%
02:00 +20°C° 0.1 mm 1 mps 706 mmHg 83%
03:00 +20°C° 0.2 mm 1 mps 706 mmHg 85%
04:00 +20°C° 0.2 mm 1 mps 705 mmHg 86%
05:00 +19°C° 0.2 mm 1 mps 705 mmHg 88%
06:00 +21°C° 0 mm 1 mps 706 mmHg 85%
07:00 +22°C° 0 mm 1 mps 706 mmHg 82%
08:00 +23°C° 0 mm 1 mps 706 mmHg 80%
09:00 +24°C° 0.5 mm 1 mps 706 mmHg 76%
10:00 +25°C° 0.5 mm 2 mps 706 mmHg 73%
11:00 +27°C° 0.5 mm 2 mps 706 mmHg 69%
12:00 +27°C° 0.8 mm 2 mps 706 mmHg 67%
13:00 +28°C° 0.8 mm 2 mps 706 mmHg 64%
14:00 +29°C° 0.8 mm 2 mps 706 mmHg 61%
15:00 +29°C° 0.8 mm 2 mps 706 mmHg 61%
16:00 +29°C° 0.8 mm 1 mps 706 mmHg 62%
17:00 +29°C° 0.8 mm 1 mps 706 mmHg 62%
18:00 +27°C° 0.6 mm 1 mps 706 mmHg 67%
19:00 +25°C° 0.6 mm 1 mps 706 mmHg 71%
20:00 +24°C° 0.6 mm 1 mps 706 mmHg 76%
21:00 +23°C° 0.8 mm 1 mps 706 mmHg 79%
22:00 +22°C° 0.8 mm 1 mps 707 mmHg 82%
23:00 +21°C° 0.8 mm 1 mps 707 mmHg 85%

Day after tomorrow, 4 July, Saturday

Time Temperature Precipitation Wind Pressure Humidity
00:00 +21°C° 0.2 mm 1 mps 707 mmHg 86%
01:00 +20°C° 0.2 mm 1 mps 707 mmHg 86%
02:00 +20°C° 0.2 mm 1 mps 707 mmHg 87%
03:00 +20°C° 0 mm 1 mps 707 mmHg 87%
04:00 +20°C° 0 mm 1 mps 707 mmHg 87%
05:00 +19°C° 0 mm 1 mps 707 mmHg 87%
06:00 +21°C° 0 mm 1 mps 707 mmHg 82%
07:00 +22°C° 0 mm 1 mps 707 mmHg 78%
08:00 +24°C° 0 mm 1 mps 708 mmHg 74%
09:00 +25°C° 0 mm 2 mps 708 mmHg 69%
10:00 +26°C° 0 mm 2 mps 708 mmHg 65%
11:00 +27°C° 0 mm 2 mps 708 mmHg 61%
12:00 +27°C° 0.3 mm 2 mps 708 mmHg 60%
13:00 +28°C° 0.3 mm 2 mps 708 mmHg 60%
14:00 +28°C° 0.3 mm 2 mps 707 mmHg 60%
15:00 +28°C° 0.7 mm 2 mps 707 mmHg 62%
16:00 +27°C° 0.7 mm 2 mps 707 mmHg 64%
17:00 +27°C° 0.7 mm 1 mps 707 mmHg 67%
18:00 +25°C° 1 mm 1 mps 706 mmHg 70%
19:00 +24°C° 1 mm 1 mps 706 mmHg 74%
20:00 +23°C° 1 mm 1 mps 706 mmHg 78%
21:00 +22°C° 1.7 mm 1 mps 706 mmHg 81%
22:00 +21°C° 1.7 mm 1 mps 707 mmHg 84%
23:00 +20°C° 1.7 mm 1 mps 707 mmHg 87%

5 July, Sunday

Time Temperature Precipitation Wind Pressure Humidity
00:00 +20°C° 1.8 mm 1 mps 707 mmHg 89%
01:00 +19°C° 1.8 mm 2 mps 707 mmHg 91%
02:00 +18°C° 1.8 mm 2 mps 707 mmHg 93%
03:00 +18°C° 0.6 mm 2 mps 707 mmHg 93%
04:00 +19°C° 0.6 mm 1 mps 707 mmHg 93%
05:00 +17°C° 0.6 mm 0 mps 707 mmHg 94%
06:00 +20°C° 0.5 mm 1 mps 707 mmHg 93%
07:00 +20°C° 0.5 mm 1 mps 707 mmHg 93%
08:00 +20°C° 0.5 mm 1 mps 707 mmHg 93%
09:00 +20°C° 0.8 mm 2 mps 707 mmHg 92%
10:00 +20°C° 0.8 mm 2 mps 707 mmHg 92%
11:00 +20°C° 0.8 mm 2 mps 708 mmHg 92%
12:00 +21°C° 0.5 mm 2 mps 707 mmHg 88%
13:00 +23°C° 0.5 mm 2 mps 707 mmHg 85%
14:00 +23°C° 0.5 mm 2 mps 707 mmHg 81%
15:00 +23°C° 0.5 mm 2 mps 707 mmHg 81%
16:00 +24°C° 0.5 mm 2 mps 707 mmHg 82%
17:00 +24°C° 0.5 mm 1 mps 707 mmHg 82%
18:00 +23°C° 0.4 mm 1 mps 707 mmHg 85%
19:00 +22°C° 0.4 mm 1 mps 707 mmHg 88%
20:00 +21°C° 0.4 mm 1 mps 707 mmHg 91%
21:00 +20°C° 0.1 mm 1 mps 707 mmHg 91%
22:00 +20°C° 0.1 mm 1 mps 707 mmHg 91%
23:00 +19°C° 0.1 mm 1 mps 707 mmHg 92%

6 July, Monday

Time Temperature Precipitation Wind Pressure Humidity
00:00 +19°C° 0 mm 1 mps 707 mmHg 91%
01:00 +19°C° 0 mm 1 mps 707 mmHg 91%
02:00 +19°C° 0 mm 1 mps 707 mmHg 91%
03:00 +19°C° 0 mm 1 mps 707 mmHg 91%
04:00 +19°C° 0 mm 1 mps 707 mmHg 92%
05:00 +18°C° 0 mm 1 mps 707 mmHg 92%
06:00 +20°C° 0 mm 1 mps 707 mmHg 89%
07:00 +20°C° 0 mm 2 mps 707 mmHg 86%
08:00 +21°C° 0 mm 2 mps 708 mmHg 84%
09:00 +24°C° 0 mm 2 mps 708 mmHg 79%
10:00 +25°C° 0 mm 2 mps 708 mmHg 75%
11:00 +26°C° 0 mm 2 mps 708 mmHg 71%
12:00 +26°C° 0 mm 2 mps 708 mmHg 67%
13:00 +27°C° 0 mm 2 mps 707 mmHg 63%
14:00 +28°C° 0 mm 2 mps 707 mmHg 58%
15:00 +28°C° 0 mm 2 mps 707 mmHg 59%
16:00 +28°C° 0 mm 2 mps 706 mmHg 59%
17:00 +28°C° 0 mm 2 mps 706 mmHg 59%
18:00 +27°C° 0 mm 1 mps 706 mmHg 66%
19:00 +25°C° 0 mm 1 mps 706 mmHg 72%
20:00 +23°C° 0 mm 1 mps 706 mmHg 78%
21:00 +23°C° 0 mm 1 mps 706 mmHg 77%
22:00 +22°C° 0 mm 1 mps 706 mmHg 77%
23:00 +22°C° 0 mm 1 mps 706 mmHg 76%

7 July, Tuesday

Time Temperature Precipitation Wind Pressure Humidity
00:00 +21°C° 0 mm 1 mps 706 mmHg 77%
01:00 +21°C° 0 mm 1 mps 706 mmHg 78%
02:00 +19°C° 0 mm 0 mps 705 mmHg 79%
03:00 +20°C° 0 mm 1 mps 705 mmHg 80%
04:00 +20°C° 0 mm 1 mps 705 mmHg 81%
05:00 +20°C° 0 mm 1 mps 705 mmHg 82%
06:00 +21°C° 0 mm 1 mps 705 mmHg 79%
07:00 +23°C° 0 mm 1 mps 705 mmHg 75%
08:00 +24°C° 0 mm 1 mps 706 mmHg 72%
09:00 +26°C° 0.3 mm 1 mps 706 mmHg 68%
10:00 +27°C° 0.3 mm 1 mps 706 mmHg 65%
11:00 +28°C° 0.3 mm 1 mps 706 mmHg 62%
12:00 +29°C° 0.2 mm 1 mps 705 mmHg 58%
13:00 +29°C° 0.2 mm 1 mps 705 mmHg 55%
14:00 +30°C° 0.2 mm 1 mps 705 mmHg 51%
15:00 +30°C° 0 mm 1 mps 705 mmHg 53%
16:00 +30°C° 0 mm 1 mps 704 mmHg 54%
17:00 +29°C° 0 mm 1 mps 704 mmHg 55%
18:00 +28°C° 0.1 mm 1 mps 704 mmHg 61%
19:00 +26°C° 0.1 mm 1 mps 704 mmHg 66%
20:00 +24°C° 0.1 mm 1 mps 704 mmHg 71%
21:00 +23°C° 0.2 mm 1 mps 704 mmHg 73%
22:00 +23°C° 0.2 mm 1 mps 704 mmHg 74%
23:00 +22°C° 0.2 mm 1 mps 704 mmHg 75%
Show more